TimeCST,TemperatureF,Dew PointF,Humidity,Sea Level PressureIn,VisibilityMPH,Wind Direction,Wind SpeedMPH,Gust SpeedMPH,PrecipitationIn,Events,Conditions,WindDirDegrees,DateUTC
12:56 AM,41.0,36.0,82,30.34,10.0,NNW,10.4,20.7,N/A,,Clear,340,2013-01-18 06:56:00
1:56 AM,39.0,36.0,89,30.35,10.0,NNW,8.1,-,N/A,,Clear,340,2013-01-18 07:56:00
2:56 AM,39.0,36.0,89,30.38,10.0,North,8.1,-,N/A,,Clear,350,2013-01-18 08:56:00
3:56 AM,37.9,35.1,89,30.39,10.0,North,8.1,-,N/A,,Clear,360,2013-01-18 09:56:00
4:56 AM,37.0,35.1,93,30.41,10.0,North,6.9,-,N/A,,Clear,350,2013-01-18 10:56:00
5:56 AM,37.0,34.0,89,30.44,10.0,North,6.9,-,N/A,,Clear,350,2013-01-18 11:56:00
6:56 AM,36.0,34.0,93,30.45,10.0,North,6.9,-,N/A,,Scattered Clouds,360,2013-01-18 12:56:00
7:56 AM,39.9,34.0,79,30.48,10.0,North,12.7,-,N/A,,Mostly Cloudy,10,2013-01-18 13:56:00
8:56 AM,45.0,34.0,65,30.49,10.0,NNE,13.8,-,N/A,,Mostly Cloudy,30,2013-01-18 14:56:00
9:56 AM,48.9,35.1,59,30.50,10.0,NE,10.4,-,N/A,,Scattered Clouds,40,2013-01-18 15:56:00
10:56 AM,52.0,36.0,54,30.49,10.0,NNE,9.2,-,N/A,,Scattered Clouds,30,2013-01-18 16:56:00
11:56 AM,54.0,37.0,53,30.46,10.0,ENE,10.4,-,N/A,,Partly Cloudy,70,2013-01-18 17:56:00
12:56 PM,57.9,35.1,42,30.41,10.0,NNE,12.7,18.4,N/A,,Partly Cloudy,20,2013-01-18 18:56:00
1:56 PM,59.0,33.1,38,30.39,10.0,North,12.7,-,N/A,,Partly Cloudy,10,2013-01-18 19:56:00
2:56 PM,60.1,33.1,36,30.38,10.0,NNE,11.5,-,N/A,,Partly Cloudy,30,2013-01-18 20:56:00
3:56 PM,59.0,34.0,39,30.38,10.0,NE,9.2,-,N/A,,Partly Cloudy,40,2013-01-18 21:56:00
4:56 PM,55.9,35.1,45,30.40,10.0,NE,6.9,-,N/A,,Partly Cloudy,40,2013-01-18 22:56:00
5:56 PM,46.0,39.0,76,30.40,10.0,North,3.5,-,N/A,,Partly Cloudy,10,2013-01-18 23:56:00
6:56 PM,42.1,37.9,85,30.42,10.0,Calm,Calm,-,N/A,,Partly Cloudy,0,2013-01-19 00:56:00
7:56 PM,39.0,37.0,93,30.43,10.0,Calm,Calm,-,N/A,,Clear,0,2013-01-19 01:56:00
8:56 PM,39.0,37.9,96,30.42,10.0,Calm,Calm,-,0.00,Rain,Light Rain,0,2013-01-19 02:56:00
9:56 PM,37.0,37.0,100,30.40,10.0,North,3.5,-,0.00,,Clear,360,2013-01-19 03:56:00
10:56 PM,41.0,37.9,89,30.38,10.0,North,4.6,-,N/A,,Clear,10,2013-01-19 04:56:00
11:56 PM,42.1,37.0,82,30.38,10.0,NNE,4.6,-,N/A,,Clear,20,2013-01-19 05:56:00